This is the latest recevied weather packets stored in our database for station/object EA3HRE-10. If no packets are shown the sender has not sent any weather packets the latest 10 day(s).
| Time | Temp. | Humidity | Pressure | Rain* | Wind** | Luminosity | Snow |
|---|---|---|---|---|---|---|---|
| 1787576573 | 27.22° C | 48% | 1012.7 hPa | - | - | - | - |
| 1787575674 | 27.22° C | 47% | 1012.9 hPa | - | - | - | - |
| 1787574773 | 27.22° C | 46% | 1013 hPa | - | - | - | - |
| 1787573874 | 27.22° C | 49% | 1013.2 hPa | - | - | - | - |
| 1787572974 | 26.67° C | 52% | 1013.7 hPa | - | - | - | - |
| 1787572073 | 26.67° C | 54% | 1013.9 hPa | - | - | - | - |
| 1787571174 | 26.67° C | 55% | 1013.9 hPa | - | - | - | - |
| 1787570273 | 26.67° C | 51% | 1014 hPa | - | - | - | - |
| 1787569374 | 26.67° C | 50% | 1013.8 hPa | - | - | - | - |
| 1787568473 | 26.67° C | 50% | 1013.6 hPa | - | - | - | - |
| 1787567573 | 26.67° C | 50% | 1013.7 hPa | - | - | - | - |
| 1787566673 | 26.67° C | 52% | 1014 hPa | - | - | - | - |
| 1787565773 | 27.78° C | 57% | 1014.1 hPa | - | - | - | - |
| 1787564874 | 28.89° C | 59% | 1014.4 hPa | - | - | - | - |
| 1787563973 | 28.33° C | 60% | 1014.8 hPa | - | - | - | - |
| 1787563074 | 28.33° C | 59% | 1014.7 hPa | - | - | - | - |
| 1787562174 | 28.33° C | 60% | 1014.6 hPa | - | - | - | - |
| 1787561274 | 28.33° C | 61% | 1014.4 hPa | - | - | - | - |
| 1787560374 | 27.78° C | 61% | 1015 hPa | - | - | - | - |
| 1787559474 | 27.78° C | 61% | 1015.3 hPa | - | - | - | - |
| 1787558574 | 27.22° C | 62% | 1015.1 hPa | - | - | - | - |
| 1787557674 | 27.22° C | 61% | 1014.8 hPa | - | - | - | - |
| 1787556774 | 27.22° C | 62% | 1014.8 hPa | - | - | - | - |
| 1787555874 | 26.67° C | 63% | 1014.4 hPa | - | - | - | - |
| 1787554973 | 26.67° C | 63% | 1014.7 hPa | - | - | - | - |
* Rain since midnight (hover to see other rain measurements)
** Current wind speed in m/s (hover to see current wind gust speed)